Wind_Speed
24 23 23 24 24 24 24 25 26 27 28 28 28 28 27 27 27 27 27 27 26 26 27 28 27 28 28 29 29 29 29 29 30 30 30 30 30 30 30 30 31 31 31
22 22 23 23 23 23 24 25 26 27 28 28 27 27 27 27 27 27 25 24 25 26 27 27 28 29 29 29 30 29 29 30 30 30 30 29 29 29 30 30 29 29 30
23 23 22 23 23 23 24 25 26 27 27 27 27 27 27 27 26 26 26 26 26 26 27 27 28 29 30 29 29 29 30 30 30 31 31 30 28 27 28 29 29 29 29
24 24 24 24 24 24 25 26 26 27 27 27 27 28 27 26 26 27 26 26 26 26 26 27 28 29 29 29 29 29 29 30 30 30 30 29 28 27 26 26 26 27 27
25 25 24 24 24 25 25 26 26 27 26 26 26 26 26 26 25 26 26 25 25 26 27 28 28 28 28 28 28 28 28 29 29 28 28 28 28 28 27 25 25 26 25
26 26 25 25 26 27 27 26 26 26 25 25 25 26 26 26 25 25 26 25 26 26 27 27 27 27 27 27 26 26 27 28 27 27 27 27 28 28 26 25 24 24 24
26 25 26 26 27 27 27 27 26 25 25 25 25 25 25 24 24 25 26 26 26 25 26 26 26 26 26 26 26 26 26 27 27 26 27 28 28 26 26 25 24 23 23
26 26 26 27 27 27 27 26 25 25 25 25 25 25 24 24 24 25 25 26 26 24 24 25 25 26 26 26 26 27 27 27 26 26 27 28 27 25 25 24 23 21 21
27 27 26 26 26 26 25 25 25 25 25 24 24 24 23 23 24 24 25 24 23 23 23 24 25 25 26 26 26 26 26 26 26 26 26 27 26 25 24 23 22 21 21
27 27 27 26 25 25 25 25 25 24 24 23 23 23 23 22 23 22 22 21 21 21 21 22 23 24 25 26 26 26 26 25 25 25 25 25 24 23 22 21 21 21 21
27 25 26 26 25 24 25 25 23 23 22 22 21 21 21 21 21 21 21 21 21 20 20 21 22 23 24 24 25 25 24 24 25 25 25 24 24 23 22 22 21 21 21
27 26 25 24 24 24 24 23 22 22 21 20 20 19 19 19 20 20 20 21 21 20 21 21 22 23 24 24 25 25 24 24 24 24 24 24 23 22 22 21 21 20 20
26 25 24 24 24 24 23 21 21 20 20 20 20 19 19 19 19 19 19 20 19 19 20 22 22 23 24 24 24 24 24 24 24 24 24 23 22 21 21 21 20 20 20
25 24 24 24 24 23 22 20 20 20 20 19 19 18 18 19 18 18 19 19 19 20 21 21 22 23 23 23 23 23 23 23 23 22 22 22 22 22 21 21 20 20 21
24 23 24 24 22 21 21 20 19 20 19 18 18 18 18 18 17 18 18 19 19 20 21 21 22 22 22 23 23 22 22 22 22 22 22 22 23 23 23 22 21 21 21
23 23 23 22 20 20 20 19 18 18 18 18 17 17 17 16 16 17 18 18 19 20 21 21 21 22 22 22 22 22 22 22 23 23 23 22 23 23 23 23 22 22 22
24 23 21 21 20 19 19 19 18 18 17 17 17 16 16 15 15 16 16 17 18 20 20 21 21 21 22 22 21 22 22 23 23 23 23 23 23 24 23 23 23 23 22
23 22 20 19 18 18 19 18 18 17 16 16 16 15 14 14 15 15 16 17 18 19 19 20 21 21 21 22 22 22 23 23 23 23 23 24 24 25 25 24 23 23 23
22 20 19 18 18 18 18 18 17 16 16 15 13 13 12 13 14 15 15 16 18 18 18 20 21 21 21 22 22 23 23 23 24 24 24 25 25 25 25 24 22 22 22
21 20 19 19 17 16 16 16 16 16 14 13 11 10 11 12 14 14 15 16 16 17 18 19 20 21 21 21 22 23 23 24 25 25 25 25 25 25 24 24 23 23 22
21 20 18 17 16 15 15 15 15 14 12 11 9 9 10 11 12 13 14 15 16 16 17 18 19 20 21 21 22 23 24 25 25 25 25 26 26 25 25 24 23 23 23
20 18 16 15 14 14 13 12 11 11 10 8 7 7 9 11 11 12 13 15 15 16 17 18 19 20 20 21 22 24 25 25 24 25 26 26 26 25 25 24 23 23 22
19 17 15 13 12 10 10 9 9 8 6 5 5 7 9 10 11 12 13 14 15 16 17 18 19 20 21 21 22 24 25 25 25 25 25 25 26 26 25 24 23 23 23
16 15 13 12 9 8 8 8 7 6 5 5 5 6 8 9 10 12 13 14 15 16 17 18 19 20 21 22 24 25 25 25 26 26 26 26 26 26 25 25 25 25 24
14 14 12 9 8 7 7 6 5 5 5 5 6 7 8 9 10 12 13 14 16 17 18 19 20 21 22 24 25 26 26 26 26 26 26 26 26 27 27 26 26 26 25
11 11 10 8 7 6 6 4 4 4 4 5 5 7 8 9 10 11 13 15 16 17 19 20 21 22 23 25 26 27 27 26 26 27 27 27 27 27 27 27 27 26 26
Wind_Direction
294 296 297 297 293 293 293 293 293 294 294 293 293 294 294 295 297 297 297 297 296 298 301 301 301 302 303 302 301 301 299 298 297 297 296 296 293 289 286 282 279 277 276
295 298 298 296 296 294 292 292 291 292 293 293 293 292 293 295 297 297 296 297 298 300 301 303 303 305 306 304 302 301 301 300 299 299 299 298 295 292 288 285 281 277 275
300 301 301 297 297 296 294 294 292 293 291 291 289 288 291 294 295 296 297 299 300 301 303 304 304 305 305 304 302 300 299 299 300 301 301 300 297 295 293 289 285 281 278
298 300 300 299 298 296 295 294 293 293 292 292 288 289 291 291 292 295 297 299 301 301 302 303 304 305 306 306 304 303 301 302 302 302 302 300 299 297 295 291 287 285 281
299 300 299 299 299 297 295 294 293 292 294 295 294 294 292 292 293 296 298 298 301 303 302 304 305 306 307 308 307 305 304 305 305 304 303 301 300 301 298 293 288 284 281
301 302 299 297 298 298 297 298 297 295 295 295 295 295 293 292 293 295 298 298 301 302 304 307 307 307 308 307 307 306 307 308 307 306 306 306 304 303 300 295 289 284 280
302 302 301 299 298 298 298 299 297 296 294 293 294 294 293 293 293 294 297 299 302 302 303 305 306 306 306 307 307 307 308 309 308 307 306 307 305 302 300 295 290 284 281
302 299 299 300 299 298 299 297 296 295 294 293 293 293 296 296 296 296 299 299 301 301 302 303 304 306 307 309 309 308 309 308 308 307 307 306 305 303 300 295 290 286 281
302 300 299 300 300 299 299 297 296 295 294 294 294 297 299 299 299 299 301 301 302 304 305 306 307 308 308 309 311 310 309 309 309 308 308 307 307 304 302 298 292 289 283
301 300 299 300 300 301 300 300 300 297 298 299 296 297 299 301 301 299 300 303 305 307 308 310 310 311 311 312 314 313 312 311 310 309 309 309 308 306 305 302 297 293 286
303 302 302 300 300 302 303 302 303 301 299 298 300 300 301 301 301 299 301 305 308 307 308 310 311 313 314 315 316 315 314 313 311 310 309 309 308 307 305 302 299 296 291
305 303 303 302 301 303 303 302 302 301 301 300 302 302 302 303 302 301 302 304 306 306 309 310 313 314 314 315 317 316 314 314 313 312 311 309 308 307 306 302 299 297 293
302 302 303 303 302 303 303 302 300 299 300 301 301 300 300 301 302 301 302 305 309 312 313 314 315 316 317 317 317 318 316 315 315 314 315 312 309 308 306 303 300 298 297
302 302 302 302 301 302 301 299 297 297 299 299 298 299 298 298 300 303 305 308 311 313 315 316 319 320 320 321 321 320 319 319 318 317 316 315 312 311 306 303 300 297 297
303 303 301 300 301 301 300 300 298 296 297 300 299 299 299 299 303 306 307 309 311 313 317 320 322 323 322 323 324 323 323 322 322 320 319 317 315 312 309 306 302 300 298
305 304 302 300 301 300 300 302 299 302 300 299 299 300 299 301 304 306 308 310 312 315 319 322 323 324 325 325 325 324 323 322 321 321 320 318 317 315 311 308 305 302 299
306 305 303 303 302 300 300 299 301 302 303 300 298 301 300 303 307 307 309 311 314 318 321 324 325 325 326 327 327 326 325 324 324 323 322 320 319 316 312 308 305 303 301
309 310 309 305 304 303 302 302 303 305 301 302 300 300 302 306 308 310 311 314 317 319 321 325 327 328 328 328 328 327 327 326 326 325 323 320 319 318 315 311 308 304 301
310 311 309 306 304 302 300 302 304 303 302 301 303 302 304 309 313 315 316 319 321 323 323 326 328 329 329 328 328 328 327 327 326 324 323 321 321 320 318 315 311 308 302
312 310 307 305 305 303 300 299 304 304 299 302 303 302 307 314 318 320 322 324 325 326 326 328 331 331 330 330 329 329 329 328 328 327 325 323 322 322 319 316 312 310 305
312 310 311 310 308 307 302 298 302 304 301 303 303 305 314 320 323 324 326 329 330 331 331 332 333 333 331 330 330 331 331 331 332 330 328 327 326 325 323 320 315 312 310
311 310 312 313 310 309 306 306 307 305 305 307 310 316 323 327 330 332 332 333 336 337 337 337 336 335 335 333 334 335 335 334 333 331 330 329 329 329 326 324 320 316 313
314 315 314 317 314 314 315 317 319 316 313 316 318 321 325 329 331 334 337 340 342 343 342 341 339 339 340 340 339 338 337 336 335 334 334 333 332 332 331 327 324 322 318
316 317 317 320 317 315 319 324 328 327 323 325 325 327 331 332 336 341 344 345 348 349 348 347 345 345 344 343 342 340 338 337 336 336 336 335 333 333 332 329 324 323 322
313 314 316 317 311 313 320 328 336 341 341 345 343 340 339 343 347 349 349 351 352 352 352 351 349 347 346 345 344 343 340 338 338 338 337 335 334 333 333 331 328 325 324
309 311 314 316 313 313 319 325 334 345 351 358 357 355 354 353 352 353 354 357 356 354 355 354 352 350 349 346 345 345 343 342 341 340 338 337 336 336 335 334 333 331 327
Height
5846 5844 5842 5840 5839 5838 5836 5834 5833 5831 5830 5828 5826 5824 5823 5821 5819 5817 5815 5813 5811 5809 5807 5805 5802 5799 5797 5793 5791 5788 5786 5783 5780 5778 5776 5774 5771 5769 5768 5766 5765 5764 5764
5841 5840 5838 5837 5835 5834 5832 5830 5828 5826 5824 5822 5820 5819 5817 5816 5814 5812 5810 5808 5805 5804 5801 5799 5796 5793 5790 5788 5785 5782 5780 5777 5774 5771 5769 5767 5765 5762 5760 5758 5757 5756 5756
5838 5836 5834 5832 5831 5829 5827 5826 5824 5821 5819 5817 5815 5813 5811 5810 5809 5807 5805 5803 5801 5799 5796 5794 5791 5788 5785 5782 5779 5776 5774 5771 5768 5764 5761 5759 5757 5755 5753 5750 5748 5747 5747
5833 5831 5830 5828 5826 5825 5823 5821 5818 5816 5814 5812 5810 5809 5807 5805 5804 5802 5800 5798 5796 5794 5791 5788 5785 5782 5779 5776 5773 5770 5767 5764 5761 5758 5754 5751 5748 5746 5745 5743 5741 5739 5739
5829 5827 5825 5823 5821 5819 5817 5815 5813 5810 5809 5807 5805 5803 5802 5800 5798 5796 5794 5792 5790 5788 5785 5782 5779 5776 5773 5770 5767 5764 5761 5758 5754 5751 5748 5745 5742 5739 5737 5735 5734 5733 5732
5824 5822 5820 5818 5816 5814 5812 5809 5807 5805 5803 5801 5799 5798 5796 5795 5793 5791 5789 5787 5785 5782 5780 5777 5774 5771 5768 5765 5762 5758 5755 5752 5748 5744 5742 5739 5736 5733 5730 5728 5727 5726 5725
5820 5817 5815 5813 5810 5809 5807 5804 5802 5799 5797 5795 5794 5793 5791 5789 5787 5785 5783 5781 5779 5777 5774 5772 5769 5766 5763 5760 5756 5753 5750 5746 5742 5739 5736 5732 5729 5726 5723 5721 5720 5719 5719
5815 5813 5810 5808 5805 5803 5801 5799 5796 5794 5792 5790 5789 5787 5785 5784 5782 5779 5777 5775 5774 5771 5769 5766 5764 5760 5757 5754 5751 5748 5744 5741 5737 5733 5730 5726 5723 5720 5717 5715 5713 5713 5712
5811 5808 5805 5803 5800 5798 5796 5793 5791 5788 5786 5784 5783 5782 5780 5778 5776 5774 5771 5769 5767 5766 5763 5761 5758 5755 5752 5749 5746 5742 5739 5735 5731 5728 5724 5721 5717 5714 5711 5709 5707 5706 5706
5805 5802 5800 5797 5795 5792 5790 5788 5785 5783 5781 5779 5778 5777 5775 5773 5771 5769 5767 5765 5762 5761 5759 5756 5753 5750 5747 5744 5740 5737 5733 5730 5726 5723 5719 5715 5712 5709 5706 5704 5702 5700 5699
5800 5797 5794 5791 5789 5787 5785 5783 5781 5778 5776 5775 5773 5772 5770 5769 5767 5765 5763 5760 5758 5757 5754 5751 5748 5746 5742 5739 5735 5732 5728 5724 5721 5717 5714 5710 5707 5704 5701 5699 5697 5695 5693
5794 5791 5787 5784 5782 5781 5780 5778 5776 5774 5772 5770 5769 5767 5766 5764 5762 5761 5759 5756 5754 5752 5750 5747 5744 5741 5738 5734 5730 5727 5723 5719 5715 5712 5708 5705 5702 5699 5696 5694 5692 5690 5688
5788 5785 5782 5780 5778 5776 5774 5773 5771 5769 5767 5766 5764 5763 5762 5760 5758 5756 5754 5752 5750 5747 5745 5742 5739 5736 5733 5729 5725 5722 5718 5714 5710 5707 5704 5700 5697 5694 5691 5689 5687 5685 5683
5782 5779 5777 5775 5773 5771 5769 5768 5766 5764 5763 5761 5759 5758 5757 5756 5754 5752 5750 5748 5746 5743 5741 5738 5735 5731 5728 5724 5721 5717 5713 5709 5706 5702 5699 5696 5692 5689 5687 5684 5682 5680 5678
5776 5774 5772 5769 5767 5766 5765 5763 5761 5760 5758 5756 5755 5754 5753 5751 5750 5748 5746 5744 5742 5739 5737 5734 5730 5727 5724 5720 5717 5713 5709 5705 5702 5698 5695 5691 5688 5685 5682 5679 5677 5674 5672
5771 5769 5766 5764 5762 5761 5759 5758 5757 5755 5753 5752 5751 5750 5749 5747 5746 5744 5742 5740 5738 5736 5733 5730 5727 5724 5720 5716 5712 5709 5705 5702 5698 5694 5690 5687 5684 5680 5677 5674 5671 5669 5666
5766 5763 5761 5758 5757 5756 5755 5753 5752 5750 5749 5748 5747 5746 5745 5744 5742 5740 5739 5737 5735 5732 5729 5727 5724 5720 5717 5713 5709 5705 5702 5698 5694 5690 5686 5682 5679 5675 5671 5668 5665 5662 5660
5761 5759 5756 5754 5753 5751 5750 5749 5748 5746 5745 5744 5743 5742 5741 5740 5739 5737 5735 5733 5731 5729 5726 5723 5720 5717 5713 5709 5706 5702 5698 5694 5690 5686 5682 5678 5674 5669 5665 5662 5659 5656 5654
5757 5755 5753 5751 5749 5748 5746 5745 5744 5743 5742 5740 5739 5738 5738 5737 5736 5734 5732 5730 5728 5725 5723 5720 5717 5714 5710 5706 5702 5698 5694 5690 5686 5682 5678 5674 5669 5665 5660 5657 5653 5651 5648
5753 5751 5749 5747 5745 5744 5743 5741 5740 5739 5738 5737 5736 5736 5735 5734 5733 5732 5729 5727 5725 5723 5720 5717 5714 5710 5707 5703 5699 5695 5691 5686 5682 5677 5673 5669 5664 5660 5655 5651 5647 5645 5642
5750 5748 5746 5744 5742 5740 5739 5738 5737 5736 5735 5734 5734 5734 5733 5732 5731 5729 5727 5725 5723 5720 5717 5714 5711 5708 5704 5700 5696 5691 5687 5682 5678 5673 5669 5664 5660 5655 5650 5645 5642 5638 5636
5747 5744 5742 5740 5739 5737 5736 5735 5734 5733 5732 5732 5732 5732 5732 5731 5729 5728 5725 5723 5720 5718 5715 5712 5708 5704 5701 5697 5692 5688 5683 5678 5674 5669 5664 5660 5655 5650 5645 5641 5637 5633 5630
5743 5741 5739 5738 5736 5735 5734 5733 5732 5731 5731 5731 5731 5731 5730 5729 5728 5726 5724 5721 5719 5716 5713 5709 5706 5702 5698 5694 5689 5685 5680 5675 5670 5665 5660 5655 5650 5646 5641 5636 5632 5628 5624
5741 5739 5737 5735 5734 5733 5732 5731 5731 5730 5730 5730 5730 5730 5729 5728 5727 5725 5723 5720 5717 5714 5711 5708 5704 5700 5696 5691 5687 5682 5677 5672 5667 5662 5657 5652 5647 5642 5637 5632 5627 5622 5618
5738 5737 5735 5734 5733 5732 5731 5730 5730 5730 5730 5729 5729 5729 5728 5727 5726 5724 5722 5719 5716 5713 5710 5706 5702 5698 5694 5689 5684 5679 5674 5669 5664 5658 5653 5648 5643 5638 5632 5627 5622 5617 5613
5736 5735 5733 5732 5732 5731 5730 5730 5730 5730 5730 5730 5729 5728 5728 5727 5725 5723 5721 5718 5716 5712 5709 5705 5701 5697 5693 5688 5682 5677 5671 5666 5661 5655 5650 5645 5639 5634 5628 5623 5618 5612 5608